Time,TemperatureF,DewpointF,PressureIn,WindDirection,WindDirectionDegrees,WindSpeedMPH,WindSpeedGustMPH,Humidity,HourlyPrecipIn,Conditions,Clouds,dailyrainin,SoftwareType,DateUTC
2013-02-01 00:02:00,28.6,18.0,29.65,SSW,202,0.0,0.0,61,0.00,,,0.00,Rainwise IP-100,2013-02-01 05:02:00,
2013-02-01 00:03:00,28.6,18.0,29.65,SSW,202,0.0,0.0,61,0.00,,,0.00,Rainwise IP-100,2013-02-01 05:03:00,
2013-02-01 00:04:00,28.5,18.0,29.64,SSW,202,0.0,0.0,61,0.00,,,0.00,Rainwise IP-100,2013-02-01 05:04:00,
2013-02-01 00:05:00,28.5,18.0,29.64,SSW,202,0.0,0.0,61,0.00,,,0.00,Rainwise IP-100,2013-02-01 05:05:00,
2013-02-01 00:10:00,28.4,16.0,29.64,SSW,202,0.0,0.0,60,0.00,,,0.00,Rainwise IP-100,2013-02-01 05:10:00,
2013-02-01 00:15:00,28.4,16.0,29.64,SSW,202,0.0,0.0,60,0.00,,,0.00,Rainwise IP-100,2013-02-01 05:15:00,
2013-02-01 00:20:00,28.5,18.0,29.63,SSW,202,0.0,0.0,60,0.00,,,0.00,Rainwise IP-100,2013-02-01 05:20:00,
2013-02-01 00:25:00,28.7,18.0,29.63,SSW,202,0.0,0.0,60,0.00,,,0.00,Rainwise IP-100,2013-02-01 05:25:00,
2013-02-01 00:31:00,28.6,18.0,29.63,SSW,202,0.0,0.0,61,0.00,,,0.00,Rainwise IP-100,2013-02-01 05:31:00,
2013-02-01 00:36:00,28.4,18.0,29.63,SSW,202,0.0,0.0,67,0.00,,,0.00,Rainwise IP-100,2013-02-01 05:36:00,
2013-02-01 00:41:00,28.0,23.0,29.63,SSW,202,0.0,0.0,78,0.00,,,0.00,Rainwise IP-100,2013-02-01 05:41:00,
2013-02-01 00:46:00,27.7,23.0,29.62,SSW,202,0.0,0.0,82,0.00,,,0.00,Rainwise IP-100,2013-02-01 05:46:00,
2013-02-01 00:51:00,27.3,23.0,29.61,SSW,202,0.0,0.0,79,0.00,,,0.00,Rainwise IP-100,2013-02-01 05:51:00,
2013-02-01 00:56:00,27.1,23.0,29.62,SSW,202,0.0,0.0,77,0.00,,,0.00,Rainwise IP-100,2013-02-01 05:56:00,
2013-02-01 01:01:00,27.0,23.0,29.62,SSW,202,0.0,0.0,80,0.00,,,0.00,Rainwise IP-100,2013-02-01 06:01:00,
2013-02-01 01:06:00,26.8,23.0,29.63,SSW,202,0.0,0.0,82,0.00,,,0.00,Rainwise IP-100,2013-02-01 06:06:00,
2013-02-01 01:12:00,26.6,24.0,29.62,SSW,202,0.0,0.0,84,0.00,,,0.00,Rainwise IP-100,2013-02-01 06:12:00,
2013-02-01 01:18:00,26.4,23.0,29.62,SSW,202,0.0,0.0,86,0.00,,,0.00,Rainwise IP-100,2013-02-01 06:18:00,
2013-02-01 01:23:00,26.1,23.0,29.62,SSW,202,0.0,0.0,87,0.00,,,0.00,Rainwise IP-100,2013-02-01 06:23:00,
2013-02-01 01:28:00,25.8,23.0,29.62,SSW,202,0.0,0.0,86,0.00,,,0.00,Rainwise IP-100,2013-02-01 06:28:00,
2013-02-01 01:33:00,25.6,21.0,29.62,SSW,202,0.0,0.0,82,0.00,,,0.00,Rainwise IP-100,2013-02-01 06:33:00,
2013-02-01 01:38:00,25.6,21.0,29.63,SSW,202,0.0,0.0,80,0.00,,,0.00,Rainwise IP-100,2013-02-01 06:38:00,
2013-02-01 01:43:00,25.9,21.0,29.63,SSW,202,0.0,0.0,80,0.00,,,0.00,Rainwise IP-100,2013-02-01 06:43:00,
2013-02-01 01:48:00,26.2,21.0,29.63,SSW,202,0.0,0.0,80,0.00,,,0.00,Rainwise IP-100,2013-02-01 06:48:00,
2013-02-01 01:53:00,26.4,21.0,29.62,SSW,202,0.0,0.0,80,0.00,,,0.00,Rainwise IP-100,2013-02-01 06:53:00,
2013-02-01 01:58:00,26.7,23.0,29.63,SSW,202,0.0,0.0,78,0.00,,,0.00,Rainwise IP-100,2013-02-01 06:58:00,
2013-02-01 02:03:00,27.1,21.0,29.63,SSW,202,0.0,0.0,76,0.00,,,0.00,Rainwise IP-100,2013-02-01 07:03:00,
2013-02-01 02:08:00,27.5,21.0,29.62,SSW,202,0.0,0.0,75,0.00,,,0.00,Rainwise IP-100,2013-02-01 07:08:00,
2013-02-01 02:13:00,27.8,21.0,29.62,SSW,202,0.0,0.0,72,0.00,,,0.00,Rainwise IP-100,2013-02-01 07:13:00,
2013-02-01 02:19:00,28.1,21.0,29.61,SSW,202,0.0,0.0,70,0.00,,,0.00,Rainwise IP-100,2013-02-01 07:19:00,
2013-02-01 02:24:00,28.3,18.0,29.61,SSW,202,0.0,0.0,69,0.00,,,0.00,Rainwise IP-100,2013-02-01 07:24:00,
2013-02-01 02:29:00,28.7,21.0,29.61,SSW,202,0.0,0.0,67,0.00,,,0.00,Rainwise IP-100,2013-02-01 07:29:00,
2013-02-01 02:34:00,29.0,21.0,29.61,SSW,202,0.0,0.0,66,0.00,,,0.00,Rainwise IP-100,2013-02-01 07:34:00,
2013-02-01 02:39:00,29.1,21.0,29.60,SSW,202,0.0,0.0,66,0.00,,,0.00,Rainwise IP-100,2013-02-01 07:39:00,
2013-02-01 02:44:00,29.3,18.0,29.59,SSW,202,0.0,0.0,65,0.00,,,0.00,Rainwise IP-100,2013-02-01 07:44:00,
2013-02-01 02:49:00,29.5,21.0,29.59,SSW,202,0.0,0.0,65,0.00,,,0.00,Rainwise IP-100,2013-02-01 07:49:00,
2013-02-01 02:54:00,29.6,21.0,29.59,SSW,202,0.0,0.0,64,0.00,,,0.00,Rainwise IP-100,2013-02-01 07:54:00,
2013-02-01 02:59:00,29.7,21.0,29.59,SSW,202,0.0,0.0,65,0.00,,,0.00,Rainwise IP-100,2013-02-01 07:59:00,
2013-02-01 03:04:00,29.8,21.0,29.59,SSW,202,0.0,0.0,66,0.00,,,0.00,Rainwise IP-100,2013-02-01 08:04:00,
2013-02-01 03:09:00,29.9,21.0,29.59,SSW,202,0.0,0.0,66,0.00,,,0.00,Rainwise IP-100,2013-02-01 08:09:00,
2013-02-01 03:14:00,30.0,21.0,29.59,SSW,202,0.0,0.0,66,0.00,,,0.00,Rainwise IP-100,2013-02-01 08:14:00,
2013-02-01 03:20:00,30.1,21.0,29.58,SSW,202,0.0,0.0,66,0.00,,,0.00,Rainwise IP-100,2013-02-01 08:20:00,
2013-02-01 03:25:00,30.1,21.0,29.58,SSW,202,0.0,0.0,65,0.00,,,0.00,Rainwise IP-100,2013-02-01 08:25:00,
2013-02-01 03:30:00,30.1,21.0,29.57,SSW,202,0.0,0.0,65,0.00,,,0.00,Rainwise IP-100,2013-02-01 08:30:00,
2013-02-01 03:35:00,30.1,21.0,29.57,SSW,202,0.0,0.0,64,0.00,,,0.00,Rainwise IP-100,2013-02-01 08:35:00,
2013-02-01 03:40:00,30.1,21.0,29.57,SSW,202,0.0,0.0,65,0.00,,,0.00,Rainwise IP-100,2013-02-01 08:40:00,
2013-02-01 03:45:00,30.2,21.0,29.57,SSW,202,0.0,0.0,66,0.00,,,0.00,Rainwise IP-100,2013-02-01 08:45:00,
2013-02-01 03:50:00,30.2,21.0,29.57,SSW,202,0.0,0.0,67,0.00,,,0.00,Rainwise IP-100,2013-02-01 08:50:00,
2013-02-01 03:55:00,30.2,21.0,29.56,SSW,202,0.0,0.0,67,0.00,,,0.00,Rainwise IP-100,2013-02-01 08:55:00,
2013-02-01 04:00:00,30.2,21.0,29.56,SSW,202,0.0,0.0,67,0.00,,,0.00,Rainwise IP-100,2013-02-01 09:00:00,
2013-02-01 04:05:00,30.2,23.0,29.56,SSW,202,0.0,0.0,68,0.00,,,0.00,Rainwise IP-100,2013-02-01 09:05:00,
2013-02-01 04:10:00,30.2,21.0,29.55,SSW,202,0.0,0.0,67,0.00,,,0.00,Rainwise IP-100,2013-02-01 09:10:00,
2013-02-01 04:15:00,30.2,21.0,29.55,SSW,202,0.0,0.0,67,0.00,,,0.00,Rainwise IP-100,2013-02-01 09:15:00,
2013-02-01 04:21:00,30.4,21.0,29.55,SSW,202,0.0,0.0,67,0.00,,,0.00,Rainwise IP-100,2013-02-01 09:21:00,
2013-02-01 04:26:00,30.5,21.0,29.55,SSW,202,0.0,0.0,67,0.00,,,0.00,Rainwise IP-100,2013-02-01 09:26:00,
2013-02-01 04:31:00,30.7,21.0,29.55,SSW,202,0.0,0.0,67,0.00,,,0.00,Rainwise IP-100,2013-02-01 09:31:00,
2013-02-01 04:36:00,30.8,21.0,29.55,SSW,202,0.0,0.0,67,0.00,,,0.00,Rainwise IP-100,2013-02-01 09:36:00,
2013-02-01 04:41:00,30.9,21.0,29.55,SSW,202,0.0,0.0,67,0.00,,,0.00,Rainwise IP-100,2013-02-01 09:41:00,
2013-02-01 04:46:00,31.0,21.0,29.55,SSW,202,0.0,0.0,67,0.00,,,0.00,Rainwise IP-100,2013-02-01 09:46:00,
2013-02-01 04:51:00,31.0,21.0,29.54,SSW,202,0.0,0.0,67,0.00,,,0.00,Rainwise IP-100,2013-02-01 09:51:00,
2013-02-01 04:56:00,31.0,23.0,29.55,SSW,202,0.0,0.0,68,0.00,,,0.00,Rainwise IP-100,2013-02-01 09:56:00,
2013-02-01 05:01:00,30.9,23.0,29.55,SSW,202,0.0,0.0,68,0.00,,,0.00,Rainwise IP-100,2013-02-01 10:01:00,
2013-02-01 05:06:00,30.9,23.0,29.56,SSW,202,0.0,0.0,69,0.00,,,0.00,Rainwise IP-100,2013-02-01 10:06:00,
2013-02-01 05:11:00,31.0,23.0,29.56,SSW,202,0.0,1.6,69,0.00,,,0.00,Rainwise IP-100,2013-02-01 10:11:00,
2013-02-01 05:16:00,31.0,23.0,29.56,SSW,202,0.0,0.0,68,0.00,,,0.00,Rainwise IP-100,2013-02-01 10:16:00,
2013-02-01 05:22:00,31.1,21.0,29.56,SSW,202,0.0,2.6,67,0.00,,,0.00,Rainwise IP-100,2013-02-01 10:22:00,
2013-02-01 05:27:00,31.1,21.0,29.56,SSW,202,0.0,1.6,67,0.00,,,0.00,Rainwise IP-100,2013-02-01 10:27:00,
2013-02-01 05:32:00,31.2,21.0,29.56,SSW,202,0.0,0.0,66,0.00,,,0.00,Rainwise IP-100,2013-02-01 10:32:00,
2013-02-01 05:37:00,31.3,21.0,29.56,SW,225,2.1,2.1,66,0.00,,,0.00,Rainwise IP-100,2013-02-01 10:37:00,
2013-02-01 05:42:00,31.3,21.0,29.57,SSW,202,0.0,3.0,66,0.00,,,0.00,Rainwise IP-100,2013-02-01 10:42:00,
2013-02-01 05:47:00,31.3,21.0,29.57,SSW,202,0.0,3.0,66,0.00,,,0.00,Rainwise IP-100,2013-02-01 10:47:00,
2013-02-01 05:52:00,31.3,21.0,29.57,SSW,202,0.0,1.6,66,0.00,,,0.00,Rainwise IP-100,2013-02-01 10:52:00,
2013-02-01 05:57:00,31.3,21.0,29.59,SW,225,0.0,2.6,67,0.00,,,0.00,Rainwise IP-100,2013-02-01 10:57:00,
2013-02-01 06:02:00,31.3,21.0,29.59,SW,225,0.0,3.3,67,0.00,,,0.00,Rainwise IP-100,2013-02-01 11:02:00,
2013-02-01 06:07:00,31.3,21.0,29.60,WSW,247,1.9,4.9,67,0.00,,,0.00,Rainwise IP-100,2013-02-01 11:07:00,
2013-02-01 06:12:00,31.3,21.0,29.60,SSW,202,0.0,5.4,67,0.00,,,0.00,Rainwise IP-100,2013-02-01 11:12:00,
2013-02-01 06:17:00,31.2,21.0,29.61,SSW,202,4.4,4.4,67,0.00,,,0.00,Rainwise IP-100,2013-02-01 11:17:00,
2013-02-01 06:23:00,31.0,23.0,29.62,WSW,247,1.6,7.7,68,0.00,,,0.00,Rainwise IP-100,2013-02-01 11:23:00,
2013-02-01 06:28:00,30.3,23.0,29.63,SSW,202,1.2,8.6,72,0.00,,,0.00,Rainwise IP-100,2013-02-01 11:28:00,
2013-02-01 06:33:00,29.4,24.0,29.64,SW,225,1.4,5.8,79,0.00,,,0.00,Rainwise IP-100,2013-02-01 11:33:00,
2013-02-01 06:38:00,28.7,26.0,29.63,SW,225,2.1,4.4,85,0.00,,,0.00,Rainwise IP-100,2013-02-01 11:38:00,
2013-02-01 06:43:00,28.4,24.0,29.64,South,180,1.4,3.7,87,0.00,,,0.00,Rainwise IP-100,2013-02-01 11:43:00,
2013-02-01 06:48:00,28.2,24.0,29.65,SSW,202,1.6,5.1,88,0.00,,,0.00,Rainwise IP-100,2013-02-01 11:48:00,
2013-02-01 06:53:00,28.0,24.0,29.65,SW,225,4.0,8.6,89,0.00,,,0.00,Rainwise IP-100,2013-02-01 11:53:00,
2013-02-01 06:58:00,27.6,24.0,29.65,SSE,157,1.6,11.4,89,0.00,,,0.00,Rainwise IP-100,2013-02-01 11:58:00,
2013-02-01 07:03:00,27.2,24.0,29.66,WSW,247,1.9,6.5,89,0.00,,,0.00,Rainwise IP-100,2013-02-01 12:03:00,
2013-02-01 07:08:00,26.9,24.0,29.66,SSW,202,0.0,7.0,88,0.00,,,0.00,Rainwise IP-100,2013-02-01 12:08:00,
2013-02-01 07:13:00,26.8,24.0,29.65,SW,225,2.6,3.7,88,0.00,,,0.00,Rainwise IP-100,2013-02-01 12:13:00,
2013-02-01 07:18:00,26.8,24.0,29.65,SSW,202,1.9,5.1,87,0.00,,,0.00,Rainwise IP-100,2013-02-01 12:18:00,
2013-02-01 07:24:00,26.8,24.0,29.65,SSW,202,1.6,5.6,87,0.00,,,0.00,Rainwise IP-100,2013-02-01 12:24:00,
2013-02-01 07:29:00,26.8,24.0,29.66,SW,225,1.2,4.4,86,0.00,,,0.00,Rainwise IP-100,2013-02-01 12:29:00,
2013-02-01 07:34:00,26.8,24.0,29.66,SSW,202,0.0,7.2,85,0.00,,,0.00,Rainwise IP-100,2013-02-01 12:34:00,
2013-02-01 07:39:00,26.9,24.0,29.67,SSW,202,1.6,5.4,85,0.00,,,0.00,Rainwise IP-100,2013-02-01 12:39:00,
2013-02-01 07:44:00,27.0,24.0,29.67,SSW,202,1.4,7.5,84,0.00,,,0.00,Rainwise IP-100,2013-02-01 12:44:00,
2013-02-01 07:49:00,27.0,24.0,29.68,SSW,202,2.8,7.2,84,0.00,,,0.00,Rainwise IP-100,2013-02-01 12:49:00,
2013-02-01 07:54:00,27.0,23.0,29.68,SW,225,1.6,6.3,83,0.00,,,0.00,Rainwise IP-100,2013-02-01 12:54:00,
2013-02-01 07:59:00,27.0,23.0,29.68,SW,225,3.5,6.8,82,0.00,,,0.00,Rainwise IP-100,2013-02-01 12:59:00,
2013-02-01 08:04:00,27.0,23.0,29.69,SSW,202,1.4,7.7,81,0.00,,,0.00,Rainwise IP-100,2013-02-01 13:04:00,
2013-02-01 08:09:00,27.0,23.0,29.69,SW,225,1.2,4.7,80,0.00,,,0.00,Rainwise IP-100,2013-02-01 13:09:00,
2013-02-01 08:14:00,27.0,23.0,29.70,SW,225,0.0,7.5,80,0.00,,,0.00,Rainwise IP-100,2013-02-01 13:14:00,
2013-02-01 08:19:00,27.1,23.0,29.71,WSW,247,2.8,4.4,79,0.00,,,0.00,Rainwise IP-100,2013-02-01 13:19:00,
2013-02-01 08:25:00,27.1,23.0,29.72,SSW,202,5.6,7.2,78,0.00,,,0.00,Rainwise IP-100,2013-02-01 13:25:00,
2013-02-01 08:30:00,27.1,23.0,29.72,SSW,202,7.5,7.5,78,0.00,,,0.00,Rainwise IP-100,2013-02-01 13:30:00,
2013-02-01 08:35:00,27.1,23.0,29.72,SW,225,1.6,7.5,77,0.00,,,0.00,Rainwise IP-100,2013-02-01 13:35:00,
2013-02-01 08:40:00,27.3,21.0,29.72,SSW,202,2.1,7.5,76,0.00,,,0.00,Rainwise IP-100,2013-02-01 13:40:00,
2013-02-01 08:45:00,27.3,21.0,29.73,WSW,247,3.5,10.0,75,0.00,,,0.00,Rainwise IP-100,2013-02-01 13:45:00,
2013-02-01 08:50:00,27.1,21.0,29.74,SW,225,3.0,7.7,74,0.00,,,0.00,Rainwise IP-100,2013-02-01 13:50:00,
2013-02-01 08:55:00,26.9,21.0,29.74,SSW,202,2.6,6.3,72,0.00,,,0.00,Rainwise IP-100,2013-02-01 13:55:00,
2013-02-01 09:00:00,27.0,21.0,29.74,SSW,202,6.3,7.2,71,0.00,,,0.00,Rainwise IP-100,2013-02-01 14:00:00,
2013-02-01 09:05:00,27.0,18.0,29.74,SSW,202,3.3,11.7,69,0.00,,,0.00,Rainwise IP-100,2013-02-01 14:05:00,
2013-02-01 09:10:00,26.8,18.0,29.75,SSW,202,4.0,9.1,67,0.00,,,0.00,Rainwise IP-100,2013-02-01 14:10:00,
2013-02-01 09:15:00,26.7,18.0,29.75,ESE,112,0.0,10.7,65,0.00,,,0.00,Rainwise IP-100,2013-02-01 14:15:00,
2013-02-01 09:21:00,26.9,16.0,29.75,SW,225,3.5,8.6,63,0.00,,,0.00,Rainwise IP-100,2013-02-01 14:21:00,
2013-02-01 09:26:00,26.9,16.0,29.75,SW,225,1.6,8.4,62,0.00,,,0.00,Rainwise IP-100,2013-02-01 14:26:00,
2013-02-01 09:31:00,27.0,16.0,29.77,SSW,202,2.3,11.2,60,0.00,,,0.00,Rainwise IP-100,2013-02-01 14:31:00,
2013-02-01 09:36:00,27.2,16.0,29.76,SSW,202,2.8,5.8,60,0.00,,,0.00,Rainwise IP-100,2013-02-01 14:36:00,
2013-02-01 09:41:00,27.5,16.0,29.77,SSW,202,3.3,9.6,59,0.00,,,0.00,Rainwise IP-100,2013-02-01 14:41:00,
2013-02-01 09:46:00,27.5,16.0,29.78,SSW,202,3.3,10.3,57,0.00,,,0.00,Rainwise IP-100,2013-02-01 14:46:00,
2013-02-01 09:51:00,27.4,14.0,29.78,SSW,202,3.5,7.0,54,0.00,,,0.00,Rainwise IP-100,2013-02-01 14:51:00,
2013-02-01 09:56:00,27.4,14.0,29.78,SW,225,7.7,10.5,53,0.00,,,0.00,Rainwise IP-100,2013-02-01 14:56:00,
2013-02-01 10:01:00,27.3,14.0,29.78,SW,225,1.6,10.5,52,0.00,,,0.00,Rainwise IP-100,2013-02-01 15:01:00,
2013-02-01 10:06:00,27.3,14.0,29.80,SW,225,3.3,11.0,52,0.00,,,0.00,Rainwise IP-100,2013-02-01 15:06:00,
2013-02-01 10:11:00,27.4,14.0,29.80,SSW,202,4.0,8.6,51,0.00,,,0.00,Rainwise IP-100,2013-02-01 15:11:00,
2013-02-01 10:16:00,27.6,14.0,29.80,SSW,202,2.1,7.9,51,0.00,,,0.00,Rainwise IP-100,2013-02-01 15:16:00,
2013-02-01 10:22:00,28.0,14.0,29.80,WSW,247,3.7,10.0,50,0.00,,,0.00,Rainwise IP-100,2013-02-01 15:22:00,
2013-02-01 10:27:00,28.0,11.0,29.81,SSW,202,3.5,11.4,49,0.00,,,0.00,Rainwise IP-100,2013-02-01 15:27:00,
2013-02-01 10:32:00,28.1,11.0,29.81,SSW,202,0.0,6.8,48,0.00,,,0.00,Rainwise IP-100,2013-02-01 15:32:00,
2013-02-01 10:37:00,28.4,11.0,29.82,SSW,202,2.3,10.3,48,0.00,,,0.00,Rainwise IP-100,2013-02-01 15:37:00,
2013-02-01 10:42:00,28.4,11.0,29.83,SSW,202,2.8,8.2,47,0.00,,,0.00,Rainwise IP-100,2013-02-01 15:42:00,
2013-02-01 10:47:00,28.3,11.0,29.83,SW,225,4.7,10.7,47,0.00,,,0.00,Rainwise IP-100,2013-02-01 15:47:00,
2013-02-01 10:52:00,27.8,11.0,29.83,SSW,202,2.8,9.1,47,0.00,,,0.00,Rainwise IP-100,2013-02-01 15:52:00,
2013-02-01 10:57:00,27.2,11.0,29.83,SSW,202,1.2,7.7,48,0.00,,,0.00,Rainwise IP-100,2013-02-01 15:57:00,
2013-02-01 11:02:00,27.4,11.0,29.83,SW,225,7.2,7.2,49,0.00,,,0.00,Rainwise IP-100,2013-02-01 16:02:00,
2013-02-01 11:07:00,27.8,11.0,29.83,SSW,202,4.0,7.2,48,0.00,,,0.00,Rainwise IP-100,2013-02-01 16:07:00,
2013-02-01 11:12:00,28.2,11.0,29.84,SSW,202,4.2,8.2,46,0.00,,,0.00,Rainwise IP-100,2013-02-01 16:12:00,
2013-02-01 11:17:00,28.2,11.0,29.84,South,180,5.8,10.0,45,0.00,,,0.00,Rainwise IP-100,2013-02-01 16:17:00,
2013-02-01 11:23:00,28.3,11.0,29.84,SSW,202,1.9,6.3,45,0.00,,,0.00,Rainwise IP-100,2013-02-01 16:23:00,
2013-02-01 11:28:00,28.7,11.0,29.84,WSW,247,1.4,5.8,46,0.00,,,0.00,Rainwise IP-100,2013-02-01 16:28:00,
2013-02-01 11:33:00,28.9,11.0,29.85,SW,225,2.1,8.6,46,0.00,,,0.00,Rainwise IP-100,2013-02-01 16:33:00,
2013-02-01 11:38:00,28.8,11.0,29.86,SSW,202,5.1,10.5,46,0.00,,,0.00,Rainwise IP-100,2013-02-01 16:38:00,
2013-02-01 11:43:00,28.5,11.0,29.86,SSW,202,2.6,7.5,46,0.00,,,0.00,Rainwise IP-100,2013-02-01 16:43:00,
2013-02-01 11:48:00,28.4,11.0,29.86,WSW,247,1.6,7.7,46,0.00,,,0.00,Rainwise IP-100,2013-02-01 16:48:00,
2013-02-01 11:53:00,28.0,11.0,29.87,SSW,202,5.6,9.3,46,0.00,,,0.00,Rainwise IP-100,2013-02-01 16:53:00,
2013-02-01 11:58:00,27.5,11.0,29.87,South,180,1.6,6.3,45,0.00,,,0.00,Rainwise IP-100,2013-02-01 16:58:00,
2013-02-01 12:03:00,27.1,11.0,29.87,SSW,202,2.1,6.3,45,0.00,,,0.00,Rainwise IP-100,2013-02-01 17:03:00,
2013-02-01 12:08:00,26.8,11.0,29.87,SSW,202,0.0,5.4,45,0.00,,,0.00,Rainwise IP-100,2013-02-01 17:08:00,
2013-02-01 12:13:00,26.7,11.0,29.87,SSW,202,1.9,5.4,46,0.00,,,0.00,Rainwise IP-100,2013-02-01 17:13:00,
2013-02-01 12:18:00,26.5,11.0,29.87,SSW,202,1.6,8.9,47,0.00,,,0.00,Rainwise IP-100,2013-02-01 17:18:00,
2013-02-01 12:24:00,26.5,11.0,29.87,SSW,202,1.2,6.3,47,0.00,,,0.00,Rainwise IP-100,2013-02-01 17:24:00,
2013-02-01 12:29:00,26.6,11.0,29.88,WSW,247,1.9,8.6,47,0.00,,,0.00,Rainwise IP-100,2013-02-01 17:29:00,
2013-02-01 12:34:00,26.6,11.0,29.87,SSW,202,4.0,12.1,47,0.00,,,0.00,Rainwise IP-100,2013-02-01 17:34:00,
2013-02-01 12:39:00,26.5,11.0,29.87,SSW,202,2.3,7.9,46,0.00,,,0.00,Rainwise IP-100,2013-02-01 17:39:00,
2013-02-01 12:44:00,26.5,11.0,29.88,SW,225,4.7,9.3,46,0.00,,,0.00,Rainwise IP-100,2013-02-01 17:44:00,
2013-02-01 12:49:00,26.6,11.0,29.87,WSW,247,7.0,8.6,47,0.00,,,0.00,Rainwise IP-100,2013-02-01 17:49:00,
2013-02-01 12:54:00,26.7,11.0,29.87,SSW,202,5.8,7.2,47,0.00,,,0.00,Rainwise IP-100,2013-02-01 17:54:00,
2013-02-01 12:59:00,26.8,11.0,29.87,SSW,202,2.3,7.2,47,0.00,,,0.00,Rainwise IP-100,2013-02-01 17:59:00,
2013-02-01 13:04:00,26.9,11.0,29.87,SSW,202,4.2,5.8,48,0.00,,,0.00,Rainwise IP-100,2013-02-01 18:04:00,
2013-02-01 13:09:00,26.8,11.0,29.88,SW,225,3.5,8.4,47,0.00,,,0.00,Rainwise IP-100,2013-02-01 18:09:00,
2013-02-01 13:14:00,26.7,11.0,29.88,South,180,7.0,7.0,47,0.00,,,0.00,Rainwise IP-100,2013-02-01 18:14:00,
2013-02-01 13:19:00,26.7,11.0,29.88,SSW,202,7.2,9.3,47,0.00,,,0.00,Rainwise IP-100,2013-02-01 18:19:00,
2013-02-01 13:25:00,26.7,11.0,29.88,WSW,247,4.9,7.2,46,0.00,,,0.00,Rainwise IP-100,2013-02-01 18:25:00,
2013-02-01 13:30:00,26.6,11.0,29.88,SSW,202,6.1,9.8,45,0.00,,,0.00,Rainwise IP-100,2013-02-01 18:30:00,
2013-02-01 13:35:00,26.4,8.0,29.88,SSW,202,1.9,6.1,46,0.00,,,0.00,Rainwise IP-100,2013-02-01 18:35:00,
2013-02-01 13:40:00,26.6,11.0,29.88,SSW,202,4.9,7.2,47,0.00,,,0.00,Rainwise IP-100,2013-02-01 18:40:00,
2013-02-01 13:45:00,26.9,11.0,29.88,SW,225,3.5,11.4,47,0.00,,,0.00,Rainwise IP-100,2013-02-01 18:45:00,
2013-02-01 13:50:00,26.8,11.0,29.89,South,180,2.3,8.4,46,0.00,,,0.00,Rainwise IP-100,2013-02-01 18:50:00,
2013-02-01 13:55:00,26.7,11.0,29.89,WSW,247,0.0,8.2,45,0.00,,,0.00,Rainwise IP-100,2013-02-01 18:55:00,
2013-02-01 14:00:00,26.5,11.0,29.90,SW,225,4.9,13.1,45,0.00,,,0.00,Rainwise IP-100,2013-02-01 19:00:00,
2013-02-01 14:05:00,26.4,8.0,29.90,SW,225,1.6,9.6,44,0.00,,,0.00,Rainwise IP-100,2013-02-01 19:05:00,
2013-02-01 14:10:00,26.2,8.0,29.90,SW,225,1.6,8.4,44,0.00,,,0.00,Rainwise IP-100,2013-02-01 19:10:00,
2013-02-01 14:15:00,26.2,8.0,29.90,WSW,247,1.6,9.1,44,0.00,,,0.00,Rainwise IP-100,2013-02-01 19:15:00,
2013-02-01 14:21:00,26.4,8.0,29.89,SSE,157,6.3,9.1,44,0.00,,,0.00,Rainwise IP-100,2013-02-01 19:21:00,
2013-02-01 14:26:00,26.4,8.0,29.90,SW,225,1.9,8.4,44,0.00,,,0.00,Rainwise IP-100,2013-02-01 19:26:00,
2013-02-01 14:31:00,26.3,8.0,29.90,SW,225,3.0,8.9,43,0.00,,,0.00,Rainwise IP-100,2013-02-01 19:31:00,
2013-02-01 14:36:00,26.5,8.0,29.91,WSW,247,2.6,8.9,43,0.00,,,0.00,Rainwise IP-100,2013-02-01 19:36:00,
2013-02-01 14:41:00,26.5,8.0,29.90,SSW,202,2.3,8.2,43,0.00,,,0.00,Rainwise IP-100,2013-02-01 19:41:00,
2013-02-01 14:46:00,26.6,11.0,29.91,SSW,202,4.0,5.6,44,0.00,,,0.00,Rainwise IP-100,2013-02-01 19:46:00,
2013-02-01 14:51:00,26.7,11.0,29.91,SSW,202,4.0,6.1,44,0.00,,,0.00,Rainwise IP-100,2013-02-01 19:51:00,
2013-02-01 14:56:00,26.7,8.0,29.92,SW,225,2.3,7.7,43,0.00,,,0.00,Rainwise IP-100,2013-02-01 19:56:00,
2013-02-01 15:01:00,26.5,8.0,29.92,SSW,202,5.4,7.5,42,0.00,,,0.00,Rainwise IP-100,2013-02-01 20:01:00,
2013-02-01 15:06:00,26.3,8.0,29.92,SSW,202,0.0,9.1,42,0.00,,,0.00,Rainwise IP-100,2013-02-01 20:06:00,
2013-02-01 15:11:00,26.2,8.0,29.92,WSW,247,0.0,6.8,43,0.00,,,0.00,Rainwise IP-100,2013-02-01 20:11:00,
2013-02-01 15:17:00,25.9,8.0,29.93,SSW,202,0.0,6.5,43,0.00,,,0.00,Rainwise IP-100,2013-02-01 20:17:00,
2013-02-01 15:22:00,25.7,8.0,29.93,WSW,247,4.7,9.1,43,0.00,,,0.00,Rainwise IP-100,2013-02-01 20:22:00,
2013-02-01 15:27:00,25.6,8.0,29.93,SW,225,0.0,5.8,43,0.00,,,0.00,Rainwise IP-100,2013-02-01 20:27:00,
2013-02-01 15:32:00,25.6,8.0,29.94,SW,225,2.8,7.5,43,0.00,,,0.00,Rainwise IP-100,2013-02-01 20:32:00,
2013-02-01 15:37:00,25.6,8.0,29.94,SSW,202,1.4,7.7,42,0.00,,,0.00,Rainwise IP-100,2013-02-01 20:37:00,
2013-02-01 15:42:00,25.6,8.0,29.94,SW,225,2.1,7.2,42,0.00,,,0.00,Rainwise IP-100,2013-02-01 20:42:00,
2013-02-01 15:47:00,25.6,8.0,29.94,SSW,202,2.8,7.2,42,0.00,,,0.00,Rainwise IP-100,2013-02-01 20:47:00,
2013-02-01 15:52:00,25.6,8.0,29.95,SW,225,3.7,8.6,41,0.00,,,0.00,Rainwise IP-100,2013-02-01 20:52:00,
2013-02-01 15:57:00,25.6,8.0,29.95,SSW,202,2.3,7.0,41,0.00,,,0.00,Rainwise IP-100,2013-02-01 20:57:00,
2013-02-01 16:02:00,25.6,8.0,29.95,SW,225,1.6,6.1,42,0.00,,,0.00,Rainwise IP-100,2013-02-01 21:02:00,
2013-02-01 16:07:00,25.6,8.0,29.95,SW,225,1.6,6.3,42,0.00,,,0.00,Rainwise IP-100,2013-02-01 21:07:00,
2013-02-01 16:12:00,25.5,8.0,29.95,SW,225,6.3,6.8,42,0.00,,,0.00,Rainwise IP-100,2013-02-01 21:12:00,
2013-02-01 16:18:00,25.5,8.0,29.96,SSW,202,3.7,7.0,43,0.00,,,0.00,Rainwise IP-100,2013-02-01 21:18:00,
2013-02-01 16:23:00,25.5,8.0,29.96,SSW,202,2.6,6.5,43,0.00,,,0.00,Rainwise IP-100,2013-02-01 21:23:00,
2013-02-01 16:28:00,25.4,8.0,29.96,SW,225,1.9,9.1,43,0.00,,,0.00,Rainwise IP-100,2013-02-01 21:28:00,
2013-02-01 16:33:00,25.4,8.0,29.96,SSW,202,1.2,3.7,43,0.00,,,0.00,Rainwise IP-100,2013-02-01 21:33:00,
2013-02-01 16:38:00,25.4,8.0,29.97,South,180,3.5,4.9,44,0.00,,,0.00,Rainwise IP-100,2013-02-01 21:38:00,
2013-02-01 16:43:00,25.5,8.0,29.97,NNW,337,1.4,3.7,44,0.00,,,0.00,Rainwise IP-100,2013-02-01 21:43:00,
2013-02-01 16:48:00,25.5,8.0,29.97,SW,225,1.9,2.8,44,0.00,,,0.00,Rainwise IP-100,2013-02-01 21:48:00,
2013-02-01 16:53:00,25.4,8.0,29.98,SSW,202,0.0,7.5,44,0.00,,,0.00,Rainwise IP-100,2013-02-01 21:53:00,
2013-02-01 16:58:00,25.2,8.0,29.98,SW,225,0.0,3.3,44,0.00,,,0.00,Rainwise IP-100,2013-02-01 21:58:00,
2013-02-01 17:03:00,25.1,8.0,29.98,SSW,202,2.1,4.9,44,0.00,,,0.00,Rainwise IP-100,2013-02-01 22:03:00,
2013-02-01 17:08:00,25.0,8.0,29.98,South,180,0.0,6.1,44,0.00,,,0.00,Rainwise IP-100,2013-02-01 22:08:00,
2013-02-01 17:13:00,24.9,8.0,29.98,SW,225,4.7,5.8,44,0.00,,,0.00,Rainwise IP-100,2013-02-01 22:13:00,
2013-02-01 17:19:00,24.7,8.0,29.98,SSW,202,0.0,5.8,43,0.00,,,0.00,Rainwise IP-100,2013-02-01 22:19:00,
2013-02-01 17:24:00,24.4,8.0,29.99,SW,225,0.0,6.8,43,0.00,,,0.00,Rainwise IP-100,2013-02-01 22:24:00,
2013-02-01 17:29:00,24.2,8.0,29.99,South,180,1.6,6.5,44,0.00,,,0.00,Rainwise IP-100,2013-02-01 22:29:00,
2013-02-01 17:34:00,24.0,8.0,29.99,SSW,202,2.1,5.6,44,0.00,,,0.00,Rainwise IP-100,2013-02-01 22:34:00,
2013-02-01 17:39:00,23.8,8.0,30.00,SW,225,2.3,7.7,44,0.00,,,0.00,Rainwise IP-100,2013-02-01 22:39:00,
2013-02-01 17:44:00,23.7,8.0,30.00,SSW,202,0.0,7.2,44,0.00,,,0.00,Rainwise IP-100,2013-02-01 22:44:00,
2013-02-01 17:49:00,23.6,8.0,30.00,SW,225,0.0,4.4,45,0.00,,,0.00,Rainwise IP-100,2013-02-01 22:49:00,
2013-02-01 17:54:00,23.4,4.0,30.01,SW,225,2.1,6.1,45,0.00,,,0.00,Rainwise IP-100,2013-02-01 22:54:00,
2013-02-01 17:59:00,23.3,4.0,30.00,SSW,202,3.7,4.4,45,0.00,,,0.00,Rainwise IP-100,2013-02-01 22:59:00,
2013-02-01 18:04:00,23.2,8.0,30.01,SSW,202,0.0,5.4,46,0.00,,,0.00,Rainwise IP-100,2013-02-01 23:04:00,
2013-02-01 18:09:00,23.1,8.0,30.01,SW,225,1.9,6.3,46,0.00,,,0.00,Rainwise IP-100,2013-02-01 23:09:00,
2013-02-01 18:14:00,23.1,8.0,30.02,SSW,202,0.0,6.1,46,0.00,,,0.00,Rainwise IP-100,2013-02-01 23:14:00,
2013-02-01 18:20:00,23.0,8.0,30.02,SSW,202,3.3,6.3,46,0.00,,,0.00,Rainwise IP-100,2013-02-01 23:20:00,
2013-02-01 18:25:00,22.9,8.0,30.02,SSW,202,1.2,3.7,46,0.00,,,0.00,Rainwise IP-100,2013-02-01 23:25:00,
2013-02-01 18:30:00,22.8,8.0,30.02,SW,225,2.3,5.1,46,0.00,,,0.00,Rainwise IP-100,2013-02-01 23:30:00,
2013-02-01 18:35:00,22.7,8.0,30.02,SSW,202,1.2,3.5,46,0.00,,,0.00,Rainwise IP-100,2013-02-01 23:35:00,
2013-02-01 18:40:00,22.6,8.0,30.03,WSW,247,2.6,7.2,46,0.00,,,0.00,Rainwise IP-100,2013-02-01 23:40:00,
2013-02-01 18:45:00,22.4,8.0,30.03,SW,225,1.4,5.4,46,0.00,,,0.00,Rainwise IP-100,2013-02-01 23:45:00,
2013-02-01 18:50:00,22.4,8.0,30.04,SSW,202,0.0,3.7,46,0.00,,,0.00,Rainwise IP-100,2013-02-01 23:50:00,
2013-02-01 18:55:00,22.3,8.0,30.05,SSW,202,0.0,2.1,47,0.00,,,0.00,Rainwise IP-100,2013-02-01 23:55:00,
2013-02-01 19:00:00,22.1,8.0,30.05,SSW,202,0.0,2.6,47,0.00,,,0.00,Rainwise IP-100,2013-02-02 00:00:00,
2013-02-01 19:05:00,22.0,8.0,30.05,WNW,292,0.0,2.1,47,0.00,,,0.00,Rainwise IP-100,2013-02-02 00:05:00,
2013-02-01 19:10:00,21.9,8.0,30.06,South,180,1.6,7.5,47,0.00,,,0.00,Rainwise IP-100,2013-02-02 00:10:00,
2013-02-01 19:15:00,21.9,8.0,30.06,South,180,0.0,3.3,47,0.00,,,0.00,Rainwise IP-100,2013-02-02 00:15:00,
2013-02-01 19:21:00,21.8,8.0,30.06,SSW,202,1.9,2.6,47,0.00,,,0.00,Rainwise IP-100,2013-02-02 00:21:00,
2013-02-01 19:26:00,21.7,8.0,30.06,SSW,202,2.1,4.7,48,0.00,,,0.00,Rainwise IP-100,2013-02-02 00:26:00,
2013-02-01 19:31:00,21.7,8.0,30.06,SW,225,3.5,4.2,47,0.00,,,0.00,Rainwise IP-100,2013-02-02 00:31:00,
2013-02-01 19:36:00,21.7,8.0,30.06,SW,225,3.0,5.1,47,0.00,,,0.00,Rainwise IP-100,2013-02-02 00:36:00,
2013-02-01 19:41:00,21.7,8.0,30.06,South,180,0.0,4.2,47,0.00,,,0.00,Rainwise IP-100,2013-02-02 00:41:00,
2013-02-01 19:46:00,21.6,8.0,30.06,SSW,202,0.0,6.3,47,0.00,,,0.00,Rainwise IP-100,2013-02-02 00:46:00,
2013-02-01 19:51:00,21.5,8.0,30.05,SW,225,2.3,5.1,47,0.00,,,0.00,Rainwise IP-100,2013-02-02 00:51:00,
2013-02-01 19:56:00,21.4,4.0,30.06,SW,225,2.8,5.6,47,0.00,,,0.00,Rainwise IP-100,2013-02-02 00:56:00,
2013-02-01 20:01:00,21.4,4.0,30.07,SSW,202,0.0,4.9,47,0.00,,,0.00,Rainwise IP-100,2013-02-02 01:01:00,
2013-02-01 20:06:00,21.3,4.0,30.07,SSW,202,0.0,4.4,47,0.00,,,0.00,Rainwise IP-100,2013-02-02 01:06:00,
2013-02-01 20:11:00,21.2,4.0,30.08,South,180,2.6,2.6,48,0.00,,,0.00,Rainwise IP-100,2013-02-02 01:11:00,
2013-02-01 20:16:00,21.1,4.0,30.07,SSW,202,0.0,4.0,48,0.00,,,0.00,Rainwise IP-100,2013-02-02 01:16:00,
2013-02-01 20:22:00,21.0,4.0,30.07,SW,225,2.1,2.8,49,0.00,,,0.00,Rainwise IP-100,2013-02-02 01:22:00,
2013-02-01 20:27:00,21.0,4.0,30.06,SSW,202,4.2,5.4,49,0.00,,,0.00,Rainwise IP-100,2013-02-02 01:27:00,
2013-02-01 20:32:00,21.1,4.0,30.06,SW,225,1.9,5.6,49,0.00,,,0.00,Rainwise IP-100,2013-02-02 01:32:00,
2013-02-01 20:37:00,21.1,4.0,30.06,SSW,202,3.3,5.6,49,0.00,,,0.00,Rainwise IP-100,2013-02-02 01:37:00,
2013-02-01 20:42:00,21.1,4.0,30.06,WSW,247,2.3,7.7,48,0.00,,,0.00,Rainwise IP-100,2013-02-02 01:42:00,
2013-02-01 20:47:00,21.0,4.0,30.08,SSW,202,2.3,3.5,48,0.00,,,0.00,Rainwise IP-100,2013-02-02 01:47:00,
2013-02-01 20:52:00,20.9,4.0,30.08,SSW,202,0.0,3.0,49,0.00,,,0.00,Rainwise IP-100,2013-02-02 01:52:00,
2013-02-01 20:57:00,20.8,4.0,30.08,SSW,202,0.0,2.6,49,0.00,,,0.00,Rainwise IP-100,2013-02-02 01:57:00,
2013-02-01 21:02:00,20.7,4.0,30.08,SSW,202,0.0,1.4,49,0.00,,,0.00,Rainwise IP-100,2013-02-02 02:02:00,
2013-02-01 21:07:00,20.6,8.0,30.08,SSW,202,0.0,3.5,50,0.00,,,0.00,Rainwise IP-100,2013-02-02 02:07:00,
2013-02-01 21:12:00,20.5,8.0,30.08,WSW,247,1.9,3.7,50,0.00,,,0.00,Rainwise IP-100,2013-02-02 02:12:00,
2013-02-01 21:17:00,20.6,8.0,30.08,SW,225,2.6,4.0,51,0.00,,,0.00,Rainwise IP-100,2013-02-02 02:17:00,
2013-02-01 21:23:00,20.6,8.0,30.08,SSW,202,2.6,3.7,51,0.00,,,0.00,Rainwise IP-100,2013-02-02 02:23:00,
2013-02-01 21:28:00,20.5,8.0,30.08,SSW,202,1.4,4.7,51,0.00,,,0.00,Rainwise IP-100,2013-02-02 02:28:00,
2013-02-01 21:33:00,20.5,8.0,30.09,SSW,202,0.0,2.3,50,0.00,,,0.00,Rainwise IP-100,2013-02-02 02:33:00,
2013-02-01 21:38:00,20.3,8.0,30.09,SW,225,0.0,3.5,51,0.00,,,0.00,Rainwise IP-100,2013-02-02 02:38:00,
2013-02-01 21:43:00,20.2,8.0,30.10,SW,225,0.0,2.3,51,0.00,,,0.00,Rainwise IP-100,2013-02-02 02:43:00,
2013-02-01 21:48:00,20.1,8.0,30.10,SW,225,0.0,0.0,51,0.00,,,0.00,Rainwise IP-100,2013-02-02 02:48:00,
2013-02-01 21:53:00,19.9,8.0,30.10,SW,225,1.2,0.0,54,0.00,,,0.00,Rainwise IP-100,2013-02-02 02:53:00,
2013-02-01 21:58:00,19.7,8.0,30.10,SW,225,2.1,2.3,54,0.00,,,0.00,Rainwise IP-100,2013-02-02 02:58:00,
2013-02-01 22:03:00,19.6,8.0,30.10,SW,225,1.4,4.2,52,0.00,,,0.00,Rainwise IP-100,2013-02-02 03:03:00,
2013-02-01 22:08:00,19.8,8.0,30.09,SSW,202,2.3,4.4,52,0.00,,,0.00,Rainwise IP-100,2013-02-02 03:08:00,
2013-02-01 22:13:00,19.8,8.0,30.10,SW,225,0.0,6.3,51,0.00,,,0.00,Rainwise IP-100,2013-02-02 03:13:00,
2013-02-01 22:18:00,19.7,8.0,30.10,SW,225,0.0,3.7,51,0.00,,,0.00,Rainwise IP-100,2013-02-02 03:18:00,
2013-02-01 22:24:00,19.7,8.0,30.11,South,180,0.0,4.7,51,0.00,,,0.00,Rainwise IP-100,2013-02-02 03:24:00,
2013-02-01 22:29:00,19.6,8.0,30.11,South,180,1.4,1.6,52,0.00,,,0.00,Rainwise IP-100,2013-02-02 03:29:00,
2013-02-01 22:34:00,19.5,8.0,30.10,SW,225,1.9,2.1,52,0.00,,,0.00,Rainwise IP-100,2013-02-02 03:34:00,
2013-02-01 22:39:00,19.4,8.0,30.10,SW,225,2.1,4.0,52,0.00,,,0.00,Rainwise IP-100,2013-02-02 03:39:00,
2013-02-01 22:44:00,19.4,8.0,30.10,SSW,202,0.0,2.8,52,0.00,,,0.00,Rainwise IP-100,2013-02-02 03:44:00,
2013-02-01 22:49:00,19.4,8.0,30.10,SW,225,1.6,4.9,52,0.00,,,0.00,Rainwise IP-100,2013-02-02 03:49:00,
2013-02-01 22:54:00,19.4,8.0,30.10,South,180,0.0,2.1,53,0.00,,,0.00,Rainwise IP-100,2013-02-02 03:54:00,
2013-02-01 22:59:00,19.3,8.0,30.11,SSW,202,0.0,4.0,53,0.00,,,0.00,Rainwise IP-100,2013-02-02 03:59:00,
2013-02-01 23:04:00,19.3,8.0,30.11,SW,225,1.2,4.7,53,0.00,,,0.00,Rainwise IP-100,2013-02-02 04:04:00,
2013-02-01 23:09:00,19.2,8.0,30.12,SSW,202,0.0,1.9,53,0.00,,,0.00,Rainwise IP-100,2013-02-02 04:09:00,
2013-02-01 23:14:00,19.2,8.0,30.11,SSW,202,0.0,1.9,53,0.00,,,0.00,Rainwise IP-100,2013-02-02 04:14:00,
2013-02-01 23:19:00,19.0,8.0,30.12,SW,225,0.0,3.5,54,0.00,,,0.00,Rainwise IP-100,2013-02-02 04:19:00,
2013-02-01 23:25:00,18.9,8.0,30.12,SW,225,1.4,3.7,54,0.00,,,0.00,Rainwise IP-100,2013-02-02 04:25:00,
2013-02-01 23:30:00,18.9,8.0,30.12,SSW,202,0.0,2.1,55,0.00,,,0.00,Rainwise IP-100,2013-02-02 04:30:00,
2013-02-01 23:35:00,18.9,8.0,30.12,South,180,0.0,2.6,55,0.00,,,0.00,Rainwise IP-100,2013-02-02 04:35:00,
2013-02-01 23:40:00,18.7,8.0,30.12,SSW,202,1.4,3.7,55,0.00,,,0.00,Rainwise IP-100,2013-02-02 04:40:00,
2013-02-01 23:45:00,18.7,8.0,30.12,SSW,202,1.4,3.5,54,0.00,,,0.00,Rainwise IP-100,2013-02-02 04:45:00,
2013-02-01 23:50:00,18.7,8.0,30.12,SSW,202,1.2,6.8,54,0.00,,,0.00,Rainwise IP-100,2013-02-02 04:50:00,
2013-02-01 23:55:00,18.7,8.0,30.12,South,180,1.2,3.5,54,0.00,,,0.00,Rainwise IP-100,2013-02-02 04:55:00,